DAMPETORP Weather Reports


time (UTC)temp
C
wind
direction
speed
KPH
gust
KPH
rain 1hr
cm
rain 24hr
cm
rain mn
cm
humidity
%
barometer
mb
20260503021532 10 84 0.0 0.0 0.00 0.00 0.00 84 1006.4
20260503020031 10 84 0.0 0.0 0.00 0.00 0.00 86 1006.3
20260503014528 10 84 0.0 0.0 0.00 0.00 0.00 84 1006.4
20260503013027 10 84 0.0 0.0 0.00 0.00 0.00 82 1006.3
20260503011526 10 84 0.0 0.0 0.00 0.00 0.00 81 1006.3
20260503010028 10 84 0.0 0.0 0.00 0.00 0.00 82 1006.4
20260503004523 10 84 0.0 0.0 0.00 0.00 0.00 82 1006.6
20260503003026 10 84 0.0 1.6 0.00 0.00 0.00 80 1006.6
20260503001522 10 84 0.0 0.0 0.00 0.00 0.00 81 1006.6
20260503000020 10 21 0.0 1.6 0.00 0.00 0.00 81 1006.5
20260502234525 10 96 0.0 1.6 0.00 0.00 0.00 81 1006.5
20260502233015 11 102 0.0 0.0 0.00 0.00 0.00 79 1006.4
20260502231512 11 102 0.0 1.6 0.00 0.00 0.00 75 1006.9
20260502230010 11 136 0.0 3.2 0.00 0.00 0.00 72 1006.9
20260502224506 12 151 0.0 4.8 0.00 0.00 0.00 72 1007.1
20260502223002 13 139 0.0 12.9 0.00 0.00 0.00 68 1007.3
20260502221600 13 154 1.6 9.7 0.00 0.00 0.00 64 1007.2
20260502220057 13 94 0.0 1.6 0.00 0.00 0.00 69 1007.0
20260502214556 12 31 0.0 4.8 0.00 0.00 0.00 71 1006.9
20260502213106 12 31 0.0 1.6 0.00 0.00 0.00 72 1006.8
20260502211555 12 26 0.0 0.0 0.00 0.00 0.00 73 1006.8
20260502210054 12 25 0.0 0.0 0.00 0.00 0.00 70 1006.8
20260502204602 13 25 0.0 0.0 0.00 0.00 0.00 68 1006.8
20260502203053 13 25 0.0 1.6 0.00 0.00 0.00 66 1006.9
20260502201552 15 25 0.0 1.6 0.00 0.00 0.00 63 1006.9
20260502200051 16 25 0.0 1.6 0.00 0.00 0.00 58 1007.0
20260502194551 16 44 0.0 8.0 0.00 0.00 0.00 55 1007.0
20260502193053 16 49 0.0 6.4 0.00 0.00 0.00 55 1007.1
20260502191551 17 70 0.0 3.2 0.00 0.00 0.00 54 1007.1
20260502190050 17 56 0.0 3.2 0.00 0.00 0.00 53 1007.0
20260502184556 17 43 0.0 6.4 0.00 0.00 0.00 51 1007.0
20260502183048 18 85 3.2 9.7 0.00 0.00 0.00 49 1006.9
20260502181548 18 54 3.2 11.3 0.00 0.00 0.00 48 1006.9
20260502163044 21 149 1.6 19.3 0.00 0.00 0.00 38 1006.9
20260502161543 22 146 0.0 16.1 0.00 0.00 0.00 35 1006.9
20260502151539 22 44 11.3 24.1 0.00 0.00 0.00 32 1007.5
20260502123020 22 103 6.4 35.4 0.00 0.00 0.00 35 1009.1
20260502121534 22 146 12.9 35.4 0.00 0.00 0.00 35 1009.4
20260502114511 22 157 9.7 25.7 0.00 0.00 0.00 37 1009.7
20260502113008 21 101 12.9 27.4 0.00 0.00 0.00 38 1010.0
20260502111505 21 335 9.7 22.5 0.00 0.00 0.00 42 1010.3
20260502110002 20 328 9.7 20.9 0.00 0.00 0.00 44 1010.6
20260502104558 20 5 9.7 19.3 0.00 0.00 0.00 46 1010.7
20260502103108 19 330 9.7 17.7 0.00 0.00 0.00 48 1011.1
20260502101607 18 41 11.3 22.5 0.00 0.00 0.00 50 1011.3
20260502071518 14 79 4.8 9.7 0.00 0.00 0.00 60 1013.5
20260502070020 13 326 6.4 11.3 0.00 0.00 0.00 61 1013.5
20260502064515 13 323 6.4 9.7 0.00 0.00 0.00 61 1013.7
20260502063021 13 339 4.8 12.9 0.00 0.00 0.00 59 1013.8
20260502061507 13 333 3.2 11.3 0.00 0.00 0.00 60 1014.0
20260502060005 12 48 3.2 9.7 0.00 0.00 0.00 60 1014.0
20260502054503 12 340 3.2 9.7 0.00 0.00 0.00 63 1014.2
20260502053003 11 337 3.2 8.0 0.00 0.00 0.00 66 1014.3
20260502051501 11 331 4.8 9.7 0.00 0.00 0.00 67 1014.3
20260502050101 10 44 3.2 11.3 0.00 0.00 0.00 68 1014.4
20260502044600 10 333 3.2 8.0 0.00 0.00 0.00 69 1014.4
20260502044501 10 355 1.6 9.7 0.00 0.00 0.00 69 1014.4
20260502043107 10 35 0.0 8.0 0.00 0.00 0.00 71 1014.6
20260502041558 9 326 3.2 9.7 0.00 0.00 0.00 72 1014.6
20260502040056 8 51 3.2 9.7 0.00 0.00 0.00 72 1014.7
20260502034555 8 49 0.0 6.4 0.00 0.00 0.00 72 1014.7
20260502033055 8 356 1.6 8.0 0.00 0.00 0.00 72 1014.9
20260502031550 8 20 3.2 8.0 0.00 0.00 0.00 72 1015.0
20260502030052 8 59 3.2 8.0 0.00 0.00 0.00 71 1015.1
20260502024548 9 37 3.2 8.0 0.00 0.00 0.00 70 1015.3
20260502023048 9 40 1.6 6.4 0.00 0.00 0.00 67 1015.4